Temperature
19 19 19 19 19 20 20 20 20 20 20 19 19 19 19 19 19 19 19 19 18 18 18 18 18 18 18 18 18 18 18 17 17 17 17 17 17 17 17 17 17 17 17
20 19 19 19 19 20 20 20 20 20 20 19 19 19 19 19 19 19 19 18 18 18 18 18 18 18 18 18 18 18 17 17 17 17 17 17 17 17 17 17 17 17 17
20 20 19 19 19 20 20 20 20 20 20 19 19 19 19 19 19 19 18 18 18 18 18 18 18 18 18 18 18 17 17 17 17 17 17 17 17 17 17 17 17 17 17
20 20 19 19 19 20 20 20 20 20 19 19 19 19 19 19 19 19 18 18 18 18 18 18 18 18 18 18 18 18 17 17 17 17 17 17 17 17 17 17 17 17 17
20 20 20 19 19 19 20 20 20 19 19 19 19 19 19 19 19 18 18 18 18 18 18 18 18 18 18 18 18 18 17 17 17 17 17 17 17 17 17 17 17 17 17
20 20 20 20 19 19 19 20 19 19 19 19 19 19 19 19 19 18 18 18 18 18 18 18 18 18 18 18 18 17 17 17 17 17 17 17 17 17 17 17 17 17 17
20 20 20 20 20 19 20 19 19 19 19 19 19 19 19 19 18 18 18 18 18 18 18 18 18 17 17 17 17 17 17 17 17 17 17 17 17 17 17 17 17 17 17
20 20 20 20 19 19 19 19 19 19 19 19 18 18 18 18 18 18 18 18 18 18 18 18 18 17 17 17 17 18 17 17 17 17 17 17 17 17 17 17 17 17 17
20 20 20 19 19 19 19 19 19 19 19 18 18 18 18 18 18 18 18 18 18 18 18 18 17 17 17 17 17 18 18 18 17 17 17 17 17 17 17 17 17 17 17
19 19 19 19 19 19 19 19 19 19 18 18 18 18 18 18 18 18 17 17 18 18 18 17 17 17 17 17 17 17 18 18 18 17 17 17 17 17 17 17 17 17 17
19 19 19 19 19 19 19 19 18 18 18 18 18 18 17 17 17 17 17 17 17 17 17 17 17 17 17 18 18 18 18 18 18 18 18 17 17 17 17 17 17 17 17
19 19 19 19 19 19 19 18 18 18 18 18 18 17 17 17 17 17 17 17 17 17 17 17 17 17 17 18 18 18 18 18 18 18 18 17 17 17 17 17 17 17 17
19 19 19 19 19 19 19 18 18 18 18 18 17 17 17 17 17 17 17 17 17 17 17 17 17 17 17 17 18 18 18 18 18 18 17 17 17 17 17 17 17 17 17
19 19 19 19 19 19 19 19 18 18 18 18 17 17 17 17 17 17 17 17 17 17 17 17 17 17 17 17 17 18 18 18 18 18 17 17 17 17 17 17 17 17 17
19 19 19 19 19 19 18 18 18 18 18 18 17 17 17 17 17 17 17 17 17 17 17 17 17 17 17 17 17 17 17 17 17 17 17 17 17 17 17 17 17 16 16
19 19 19 18 18 18 18 18 18 18 18 17 17 17 17 17 17 17 17 17 17 17 17 17 17 17 17 17 17 17 17 17 17 17 17 17 17 17 17 17 17 16 16
19 19 19 18 18 18 18 18 18 18 18 17 17 17 17 17 17 17 17 16 16 16 16 16 16 16 16 17 17 17 17 17 17 17 17 17 17 17 17 17 17 16 16
18 18 18 18 18 18 18 18 18 18 17 17 17 17 17 17 17 16 16 16 16 16 16 16 16 16 16 16 17 17 17 17 17 17 17 17 17 17 16 16 16 16 16
18 18 18 18 18 18 17 17 18 17 17 17 17 17 17 17 16 16 16 16 16 16 16 16 16 16 16 16 16 16 16 17 17 16 16 16 16 16 16 16 16 16 16
18 18 18 18 18 18 17 17 17 17 17 17 17 17 17 16 16 16 16 16 16 16 16 16 16 16 16 16 16 16 16 16 16 16 16 16 16 16 16 16 16 16 16
17 17 17 17 17 17 17 17 17 17 17 17 17 16 16 16 16 16 16 16 15 15 16 16 16 16 16 16 16 16 16 16 16 16 16 16 16 16 16 16 16 16 16
17 17 17 17 17 17 18 18 17 17 17 17 16 16 16 16 16 16 16 15 15 15 15 15 15 16 16 16 16 16 16 16 16 16 16 16 16 16 16 16 16 16 16
17 17 17 17 17 17 17 17 17 17 17 17 16 16 16 16 16 16 16 15 15 15 15 15 15 15 16 16 16 16 16 16 16 16 16 16 16 16 16 16 16 16 16
17 17 17 17 17 17 17 17 17 17 17 17 17 16 16 16 16 15 15 15 15 15 15 15 15 15 15 16 16 16 16 16 16 16 16 16 16 16 16 16 16 16 16
17 17 17 17 17 17 17 17 17 17 17 17 17 16 16 16 16 15 15 15 15 15 15 15 15 15 15 15 16 16 16 16 16 16 16 16 16 16 16 16 16 16 16
17 17 17 17 17 17 17 17 17 17 17 17 17 16 16 16 16 16 15 15 15 15 15 15 15 15 15 15 15 16 16 16 16 16 16 16 16 16 16 16 16 16 16
Wind_Speed
9 13 20 20 20 20 19 19 19 19 19 19 19 19 18 17 16 15 14 13 12 11 10 9 9 9 8 8 8 9 10 11 13 14 16 16 17 17 17 18 17 17 19
14 17 22 21 20 20 19 19 19 19 18 18 18 18 17 16 15 14 13 12 11 11 10 9 9 9 8 8 9 10 11 11 13 14 15 16 16 16 16 17 16 16 18
17 17 21 21 20 20 19 19 18 18 18 17 17 17 16 15 14 13 12 12 11 11 10 10 9 9 9 9 9 10 11 11 13 15 14 14 15 16 16 17 17 17 17
17 17 19 21 20 20 19 18 18 17 17 16 16 15 14 14 13 13 12 11 11 10 10 10 9 9 9 9 10 10 11 12 14 14 12 12 12 15 16 16 17 17 17
15 17 19 21 20 19 18 18 17 16 16 15 15 14 13 13 12 11 11 11 10 10 9 10 9 9 9 9 10 10 11 13 14 12 11 11 12 15 16 16 16 16 16
14 16 20 21 20 19 18 17 17 16 15 14 14 13 12 12 11 10 10 10 9 9 9 9 9 9 9 9 9 10 11 13 13 11 11 11 12 15 15 15 15 15 15
13 14 19 21 20 19 18 17 16 15 14 13 13 12 12 11 10 10 9 9 8 8 8 8 8 8 8 8 8 9 11 13 12 11 10 10 12 14 15 15 15 15 14
14 13 18 21 20 19 18 17 16 15 14 13 12 11 11 10 9 9 8 8 7 7 7 7 6 7 7 7 6 8 11 13 12 11 10 10 12 14 14 14 14 14 14
11 11 12 17 18 19 18 17 16 15 14 13 12 10 10 9 9 8 7 7 7 6 6 5 5 5 6 6 5 7 10 12 12 10 10 9 12 13 14 14 13 13 13
9 9 8 12 14 14 15 17 16 15 13 12 11 10 9 9 8 7 6 6 6 5 5 5 5 4 4 5 5 6 9 11 10 9 9 9 12 13 13 13 13 13 13
10 8 8 8 10 11 12 14 14 14 13 11 10 9 8 6 5 5 5 5 5 5 4 4 4 3 4 4 4 6 8 8 9 8 8 10 12 12 13 13 13 12 12
13 10 8 9 9 10 11 10 9 9 9 8 6 6 5 4 3 3 4 5 5 5 5 4 3 3 3 3 3 4 5 7 7 7 8 10 11 12 12 13 13 12 12
12 12 9 9 8 8 6 8 7 7 7 6 6 5 5 4 2 2 1 1 2 2 2 1 1 2 3 2 2 3 4 5 6 6 7 10 11 11 12 12 12 12 12
12 11 10 9 8 7 7 6 6 5 5 5 5 5 5 3 2 2 1 1 1 1 1 1 1 1 2 2 2 3 3 4 5 5 6 9 10 10 11 12 12 12 12
11 10 9 8 8 6 6 5 6 5 5 6 5 5 6 4 3 3 2 2 1 1 2 1 1 1 2 2 2 2 3 4 5 4 4 7 8 9 9 11 11 11 12
11 10 7 7 7 6 5 5 5 6 7 6 5 6 7 6 4 3 3 2 2 2 2 2 1 1 1 1 1 2 2 3 4 4 4 5 6 7 8 10 11 11 12
12 10 9 8 7 7 7 6 6 7 7 6 5 6 7 7 7 5 3 2 2 3 3 3 2 2 1 1 1 1 1 1 2 3 3 3 4 6 8 9 10 11 11
10 10 10 10 9 8 7 6 5 7 7 6 6 7 7 8 8 6 4 2 3 4 4 2 2 2 1 1 0 1 0 0 0 1 2 2 3 3 6 8 10 11 12
11 10 9 8 9 9 8 6 6 6 6 6 6 6 7 8 8 7 4 3 4 4 2 2 2 2 2 1 1 1 1 1 1 1 1 2 3 3 5 7 9 11 12
9 10 10 9 9 8 7 6 5 5 4 5 5 5 7 8 8 8 5 5 5 3 3 2 3 3 2 2 2 3 2 2 1 1 2 2 3 4 5 6 7 8 10
9 10 10 10 9 8 6 6 5 4 3 3 3 5 7 8 8 8 5 4 4 3 3 3 2 3 3 2 3 3 3 3 2 1 1 1 2 3 4 5 6 6 7
11 11 10 10 10 9 7 5 4 4 3 3 2 3 5 7 8 7 6 4 4 3 4 3 2 2 2 2 2 3 2 3 3 2 1 1 1 1 3 4 6 6 6
10 10 10 10 10 9 8 6 6 5 4 3 2 2 2 5 6 7 7 5 4 3 3 2 3 4 3 2 1 3 3 3 1 2 2 1 1 1 1 2 4 5 6
9 9 9 10 9 9 10 9 10 6 5 5 4 3 2 4 5 6 7 6 4 3 3 2 2 2 3 2 1 2 2 2 2 0 2 1 2 1 1 2 2 4 6
8 8 9 10 9 9 9 10 10 6 4 3 4 4 3 2 4 5 6 6 4 3 4 3 3 2 2 3 2 2 2 2 2 2 1 2 2 1 2 2 2 3 4
7 7 9 10 9 9 9 9 9 9 7 7 5 5 3 2 2 3 5 5 5 4 4 3 3 3 2 3 2 2 2 2 2 2 2 1 1 2 2 2 3 3 4
Wind_Direction
161 161 155 148 141 135 131 128 126 124 124 124 125 127 129 130 131 132 131 131 128 123 118 112 108 104 104 108 113 118 122 126 128 126 125 123 121 120 119 116 115 115 116
151 158 156 150 145 139 136 133 130 128 128 127 127 129 129 130 130 129 129 127 126 121 118 113 109 106 105 107 112 117 122 127 128 127 126 124 123 123 122 121 120 121 119
147 155 155 152 147 143 140 138 135 133 132 131 130 131 131 130 129 128 128 126 124 121 118 114 109 106 105 107 113 118 123 126 127 126 121 120 125 126 127 127 126 124 122
146 151 154 153 150 146 144 141 139 138 136 135 134 133 133 132 130 129 127 125 123 120 117 113 109 106 105 109 114 120 126 126 125 122 118 124 129 130 129 128 127 126 125
145 148 155 155 153 150 147 145 144 143 141 140 138 137 137 135 133 131 129 127 125 121 117 111 107 105 105 110 117 124 130 131 129 123 122 124 129 133 132 131 130 128 128
145 149 157 156 156 153 151 150 149 148 146 145 143 142 141 140 138 134 133 132 128 122 117 112 107 103 103 108 116 125 135 136 128 126 126 130 134 137 136 134 132 131 130
145 150 157 157 158 156 155 154 153 152 151 150 149 148 147 145 143 141 140 137 132 128 122 115 107 100 99 103 115 131 140 139 132 130 132 136 140 141 139 136 135 134 133
150 150 156 159 159 159 157 157 157 157 156 156 155 154 152 151 150 149 148 146 141 137 130 122 113 100 92 94 107 130 141 140 139 139 139 143 148 145 142 138 137 136 136
148 147 151 157 160 161 160 160 161 161 160 160 161 161 159 158 157 159 159 160 158 152 145 136 124 108 94 90 97 122 141 141 141 143 147 149 151 147 145 144 141 140 140
146 148 145 149 152 158 162 164 164 164 163 164 166 168 168 167 167 170 171 177 175 170 164 157 142 126 104 95 97 116 135 135 140 142 144 155 156 154 150 149 147 146 145
156 153 146 144 145 150 158 168 167 167 168 169 172 177 171 165 168 175 187 196 194 192 187 181 165 139 108 94 104 114 122 132 139 141 148 160 164 162 157 155 153 154 152
168 164 156 151 147 150 160 159 156 157 158 158 161 163 151 154 175 189 204 211 211 207 204 200 187 143 108 87 97 114 121 137 142 147 159 167 170 168 164 162 161 161 160
169 168 162 156 150 150 144 142 142 140 140 144 154 153 145 144 158 164 175 242 240 213 195 173 141 117 117 121 127 136 144 143 149 154 165 170 173 172 170 169 169 169 167
168 170 163 158 152 150 143 143 141 138 137 141 153 159 149 140 139 130 137 169 173 156 146 130 135 147 132 151 170 166 163 155 159 162 175 179 180 178 177 177 178 177 175
167 170 167 160 155 149 142 146 146 144 146 148 153 164 162 151 144 132 124 136 156 158 154 153 161 158 125 137 181 184 185 176 170 168 180 187 186 186 185 183 186 188 184
171 171 163 160 159 154 153 149 146 148 146 144 152 162 158 149 140 129 118 125 127 145 153 150 147 139 127 148 199 214 203 184 181 180 185 194 195 193 191 193 194 198 196
172 165 162 166 163 162 155 151 146 145 143 141 148 150 145 142 137 130 120 114 116 131 126 109 99 92 104 142 203 247 228 199 181 186 191 193 202 204 202 205 204 205 205
167 164 167 175 169 165 155 142 139 141 139 139 142 138 135 136 138 127 117 111 116 117 112 107 94 89 81 110 178 272 279 277 163 184 190 194 204 207 214 219 217 214 213
171 165 169 168 166 162 149 136 133 132 130 133 134 130 132 131 134 127 119 115 117 106 99 114 83 94 100 101 130 55 17 360 344 295 244 226 219 222 227 230 228 225 223
171 166 169 160 162 150 134 121 113 110 109 123 130 135 136 134 132 124 115 109 111 101 91 87 89 71 80 89 87 65 30 8 10 351 297 264 243 237 234 232 231 233 232
168 168 169 162 160 152 144 142 139 138 134 124 135 142 141 136 134 125 116 105 106 108 111 107 98 80 57 52 82 52 23 24 34 8 324 277 259 249 234 228 225 226 234
172 169 169 166 164 164 159 148 136 128 126 125 128 133 145 140 140 133 126 121 115 110 97 96 112 105 65 47 110 100 47 5 5 10 345 290 280 270 236 229 222 221 224
165 172 174 166 164 161 145 126 114 94 86 101 120 138 155 149 147 139 137 131 126 123 122 115 126 129 124 66 64 137 143 201 294 339 2 6 342 301 264 242 224 223 221
167 169 166 159 159 155 150 153 151 155 162 177 167 160 151 153 150 147 143 142 138 136 137 142 128 131 134 133 84 60 103 144 148 341 336 350 343 300 285 272 253 233 226
163 166 166 154 157 157 159 159 156 156 153 138 135 145 150 143 151 154 151 150 148 147 147 136 124 125 128 144 148 132 104 79 91 143 218 318 339 320 295 275 275 256 238
153 153 153 156 161 161 162 161 161 159 154 151 156 165 168 164 160 169 165 162 162 158 159 153 141 133 129 129 132 138 148 149 160 149 167 224 280 304 310 286 259 253 246
Height
1512 1516 1520 1523 1525 1527 1529 1531 1532 1534 1535 1537 1538 1539 1541 1542 1542 1543 1544 1545 1546 1547 1547 1548 1549 1549 1550 1550 1550 1551 1552 1552 1553 1555 1556 1557 1558 1559 1560 1561 1562 1564 1565
1510 1515 1520 1523 1526 1528 1530 1532 1533 1535 1536 1538 1539 1541 1542 1543 1544 1545 1546 1547 1548 1548 1549 1549 1550 1550 1551 1551 1551 1552 1553 1554 1555 1556 1557 1559 1560 1561 1562 1563 1564 1566 1567
1510 1515 1520 1523 1526 1528 1531 1533 1534 1536 1537 1539 1540 1542 1543 1544 1545 1547 1548 1548 1549 1550 1550 1551 1551 1552 1552 1552 1553 1553 1554 1555 1556 1557 1559 1560 1562 1563 1564 1565 1567 1568 1569
1510 1515 1519 1524 1527 1529 1532 1534 1536 1537 1539 1540 1542 1543 1545 1546 1547 1548 1549 1550 1551 1551 1552 1552 1553 1553 1553 1554 1554 1555 1556 1557 1558 1559 1561 1562 1563 1565 1566 1567 1568 1570 1571
1511 1515 1520 1524 1527 1530 1533 1535 1537 1539 1540 1542 1543 1545 1546 1547 1548 1550 1551 1551 1552 1553 1553 1554 1554 1555 1555 1556 1556 1557 1558 1559 1560 1561 1562 1564 1565 1566 1568 1569 1570 1572 1573
1512 1516 1520 1524 1528 1531 1533 1536 1538 1540 1541 1543 1544 1546 1548 1549 1550 1551 1552 1553 1554 1554 1555 1555 1556 1557 1557 1558 1558 1559 1560 1561 1562 1563 1564 1565 1567 1568 1570 1571 1572 1574 1575
1512 1516 1520 1524 1528 1531 1534 1536 1539 1541 1542 1544 1546 1547 1549 1550 1551 1552 1553 1554 1555 1556 1556 1557 1558 1558 1559 1560 1560 1561 1562 1563 1563 1564 1566 1567 1568 1570 1571 1573 1574 1575 1577
1513 1517 1520 1525 1528 1531 1534 1537 1539 1542 1543 1545 1547 1548 1550 1551 1552 1553 1554 1555 1556 1557 1558 1558 1559 1560 1560 1561 1562 1563 1564 1564 1565 1566 1567 1568 1570 1571 1572 1574 1576 1577 1578
1514 1517 1521 1525 1528 1532 1535 1537 1540 1542 1544 1546 1547 1549 1550 1552 1553 1554 1555 1556 1557 1558 1559 1560 1560 1561 1562 1563 1564 1565 1565 1566 1567 1568 1568 1570 1571 1573 1574 1576 1577 1579 1580
1515 1518 1522 1525 1528 1532 1535 1538 1540 1543 1545 1546 1548 1550 1551 1553 1554 1555 1556 1557 1558 1559 1560 1561 1561 1562 1563 1564 1565 1566 1567 1567 1568 1569 1570 1571 1572 1574 1575 1577 1578 1580 1581
1515 1518 1522 1525 1529 1532 1536 1538 1541 1543 1545 1547 1549 1550 1552 1553 1554 1555 1557 1558 1559 1560 1560 1561 1562 1563 1563 1565 1566 1567 1568 1568 1569 1570 1571 1572 1573 1575 1576 1578 1580 1581 1583
1512 1517 1522 1525 1528 1532 1535 1538 1541 1543 1545 1547 1549 1551 1552 1553 1554 1556 1557 1558 1559 1560 1561 1562 1562 1563 1564 1565 1566 1568 1569 1569 1570 1571 1572 1573 1574 1575 1577 1579 1581 1582 1584
1511 1516 1521 1525 1528 1532 1535 1538 1541 1543 1545 1547 1549 1551 1552 1554 1555 1556 1557 1558 1559 1560 1561 1562 1562 1563 1564 1565 1566 1568 1569 1570 1571 1572 1572 1574 1575 1576 1578 1579 1581 1583 1584
1510 1515 1520 1524 1528 1532 1535 1538 1541 1543 1545 1547 1549 1551 1552 1553 1554 1556 1557 1558 1559 1560 1561 1562 1563 1563 1564 1565 1566 1568 1569 1570 1571 1572 1573 1574 1575 1577 1578 1580 1581 1583 1585
1509 1514 1519 1524 1527 1531 1535 1538 1541 1543 1546 1548 1549 1551 1552 1553 1554 1555 1556 1558 1559 1560 1561 1562 1562 1563 1564 1565 1566 1567 1569 1570 1571 1572 1573 1574 1576 1577 1578 1580 1581 1583 1585
1508 1513 1518 1523 1527 1531 1534 1537 1540 1543 1546 1548 1549 1551 1552 1553 1554 1555 1556 1557 1558 1559 1560 1561 1562 1563 1564 1564 1566 1567 1568 1570 1571 1572 1573 1574 1576 1577 1578 1580 1581 1583 1585
1507 1512 1517 1522 1527 1530 1534 1537 1540 1543 1545 1547 1549 1550 1551 1552 1553 1554 1556 1557 1558 1559 1559 1560 1561 1562 1563 1564 1565 1566 1568 1569 1570 1571 1573 1574 1575 1577 1578 1580 1581 1582 1584
1505 1511 1516 1521 1525 1529 1533 1536 1540 1543 1545 1547 1549 1550 1551 1552 1553 1554 1555 1556 1557 1558 1559 1560 1561 1562 1563 1564 1565 1566 1567 1568 1569 1571 1572 1573 1575 1576 1578 1579 1580 1582 1583
1503 1509 1514 1518 1523 1528 1531 1535 1539 1542 1544 1546 1548 1549 1550 1551 1553 1554 1555 1556 1557 1558 1559 1560 1561 1562 1562 1563 1564 1566 1567 1568 1569 1570 1571 1573 1574 1575 1577 1578 1579 1580 1582
1501 1506 1512 1517 1521 1526 1530 1533 1537 1541 1543 1546 1548 1549 1550 1551 1552 1553 1554 1555 1557 1558 1559 1560 1561 1562 1562 1563 1564 1566 1567 1568 1569 1570 1571 1572 1573 1575 1576 1577 1578 1579 1581
1498 1503 1509 1514 1519 1524 1528 1532 1535 1539 1542 1545 1547 1549 1550 1551 1552 1553 1554 1555 1556 1557 1558 1559 1560 1561 1562 1563 1564 1566 1567 1568 1569 1570 1571 1571 1573 1574 1575 1576 1577 1578 1579
1495 1500 1506 1511 1517 1522 1526 1531 1535 1538 1542 1545 1547 1548 1550 1551 1552 1552 1553 1554 1556 1557 1558 1559 1560 1561 1562 1563 1565 1565 1567 1569 1569 1569 1570 1571 1572 1573 1574 1575 1576 1577 1578
1493 1498 1504 1510 1515 1521 1526 1530 1534 1538 1541 1544 1546 1548 1549 1551 1551 1552 1553 1554 1555 1556 1557 1558 1559 1560 1562 1563 1564 1566 1566 1567 1568 1569 1569 1570 1571 1572 1573 1574 1575 1576 1576
1494 1499 1503 1508 1514 1519 1524 1529 1532 1536 1539 1543 1545 1547 1549 1550 1551 1552 1552 1553 1554 1555 1556 1557 1558 1560 1561 1562 1563 1564 1565 1566 1567 1568 1569 1569 1570 1571 1572 1573 1573 1574 1575
1495 1498 1502 1507 1513 1518 1523 1527 1532 1536 1539 1542 1545 1547 1548 1550 1551 1551 1552 1553 1554 1555 1556 1557 1558 1559 1560 1561 1562 1563 1564 1565 1566 1567 1567 1568 1569 1570 1571 1571 1572 1573 1573
1495 1498 1501 1507 1512 1517 1522 1526 1530 1535 1538 1541 1543 1546 1548 1549 1550 1551 1552 1553 1554 1554 1555 1556 1557 1558 1559 1560 1561 1562 1563 1564 1564 1565 1566 1566 1567 1569 1569 1570 1570 1571 1572